DW5684 Weather Reports


Display with metric or nautical units.
time (UTC)temp
F
wind
direction
speed
MPH
gust
MPH
rain 1hr
in
rain 24hr
in
rain mn
in
humidity
%
barometer
mb
20260902112835 76 77 0.0 0.0 0.00 0.00 0.00 79 1017.1
20260902112330 76 77 0.0 0.0 0.00 0.00 0.00 79 1017.1
20260902111827 76 139 0.0 0.0 0.00 0.00 0.00 79 1017.1
20260902111320 76 139 0.0 0.0 0.00 0.00 0.00 78 1017.1
20260902110836 76 139 0.0 0.0 0.00 0.00 0.00 78 1017.1
20260902110335 76 120 0.0 0.0 0.00 0.00 0.00 78 1017.1
20260902105830 76 122 0.0 0.0 0.00 0.00 0.00 78 1017.1
20260902105325 76 126 0.0 0.0 0.00 0.00 0.00 78 1017.1
20260902104840 76 178 0.0 0.0 0.00 0.00 0.00 78 1016.9
20260902104334 76 178 0.0 0.0 0.00 0.00 0.00 77 1016.9
20260902103848 77 178 0.0 0.0 0.00 0.00 0.00 77 1016.9
20260902103320 77 178 0.0 2.0 0.00 0.00 0.00 77 1016.8
20260902102835 77 166 0.0 2.0 0.00 0.00 0.00 77 1016.9
20260902102330 77 169 0.0 0.0 0.00 0.00 0.00 76 1016.9
20260902101829 77 169 0.0 0.0 0.00 0.00 0.00 76 1016.9
20260902101324 77 156 0.0 0.0 0.00 0.00 0.00 76 1016.9
20260902100818 77 158 0.0 0.0 0.00 0.00 0.00 75 1016.9
20260902100333 78 139 0.0 0.0 0.00 0.00 0.00 75 1016.8
20260902095847 78 213 0.0 0.0 0.00 0.00 0.00 75 1016.8
20260902095340 78 210 0.0 0.0 0.00 0.00 0.00 75 1016.7
20260902094833 78 216 0.0 0.0 0.00 0.00 0.00 74 1016.7
20260902094328 78 185 0.0 2.0 0.00 0.00 0.00 74 1016.7
20260902093827 78 200 0.0 2.0 0.00 0.00 0.00 74 1016.7
20260902093322 78 195 0.0 0.0 0.00 0.00 0.00 74 1016.7
20260902092857 78 198 0.0 0.0 0.00 0.00 0.00 73 1016.6
20260902092350 79 225 0.0 0.0 0.00 0.00 0.00 73 1016.6
20260902091822 79 210 0.0 0.0 0.00 0.00 0.00 72 1016.5
20260902091336 79 187 0.0 3.0 0.00 0.00 0.00 72 1016.4
20260902090830 79 237 1.0 3.0 0.00 0.00 0.00 72 1016.4
20260902090346 80 217 1.0 3.0 0.00 0.00 0.00 71 1016.4
20260902085819 80 213 1.0 5.0 0.00 0.00 0.00 71 1016.4
20260902085334 80 245 2.0 5.0 0.00 0.00 0.00 71 1016.3
20260902084833 80 184 1.0 3.0 0.00 0.00 0.00 71 1016.4
20260902084347 80 167 0.0 6.0 0.00 0.00 0.00 70 1016.4
20260902083842 80 205 2.0 6.0 0.00 0.00 0.00 70 1016.4
20260902083335 80 201 1.0 5.0 0.00 0.00 0.00 70 1016.4
20260902082850 80 227 1.0 7.0 0.00 0.00 0.00 70 1016.4
20260902082323 80 221 2.0 7.0 0.00 0.00 0.00 70 1016.3
20260902081818 80 204 2.0 6.0 0.00 0.00 0.00 70 1016.3
20260902081333 80 162 1.0 4.0 0.00 0.00 0.00 70 1016.3
20260902080827 80 190 0.0 6.0 0.00 0.00 0.00 70 1016.4
20260902080326 80 160 1.0 6.0 0.00 0.00 0.00 69 1016.4
20260902075821 80 154 0.0 5.0 0.00 0.00 0.00 69 1016.4
20260902075336 81 181 1.0 5.0 0.00 0.00 0.00 69 1016.4
20260902074830 81 208 1.0 5.0 0.00 0.00 0.00 69 1016.4
20260902074325 81 187 2.0 5.0 0.00 0.00 0.00 69 1016.3
20260902073820 81 178 1.0 4.0 0.00 0.00 0.00 69 1016.4
20260902073335 81 182 1.0 5.0 0.00 0.00 0.00 69 1016.3
20260902072830 81 148 2.0 7.0 0.00 0.00 0.00 69 1016.4
20260902072329 81 210 2.0 6.0 0.00 0.00 0.00 69 1016.4
20260902071823 81 214 2.0 4.0 0.00 0.00 0.00 69 1016.4
20260902071318 81 219 0.0 4.0 0.00 0.00 0.00 68 1016.4
20260902070833 81 175 0.0 4.0 0.00 0.00 0.00 68 1016.4
20260902070327 81 213 0.0 5.0 0.00 0.00 0.00 68 1016.4
20260902065822 81 216 2.0 7.0 0.00 0.00 0.00 68 1016.4
20260902065336 81 178 1.0 7.0 0.00 0.00 0.00 68 1016.4
20260902064835 81 166 1.0 5.0 0.00 0.00 0.00 67 1016.5
20260902064329 81 195 1.0 5.0 0.00 0.00 0.00 67 1016.5
20260902063822 81 215 1.0 4.0 0.00 0.00 0.00 67 1016.5
20260902063337 81 190 0.0 3.0 0.00 0.00 0.00 67 1016.5
20260902062832 81 210 1.0 5.0 0.00 0.00 0.00 67 1016.5
20260902062346 81 211 1.0 4.0 0.00 0.00 0.00 67 1016.5
20260902061818 81 154 0.0 3.0 0.00 0.00 0.00 66 1016.5
20260902061332 81 155 0.0 4.0 0.00 0.00 0.00 66 1016.5
20260902060830 81 211 1.0 4.0 0.00 0.00 0.00 66 1016.4
20260902060324 81 200 0.0 7.0 0.00 0.00 0.00 66 1016.4
20260902055819 81 180 1.0 7.0 0.00 0.00 0.00 65 1016.4
20260902055333 82 186 0.0 3.0 0.00 0.00 0.00 65 1016.4
20260902054828 82 205 1.0 4.0 0.00 0.00 0.00 64 1016.4
20260902054322 82 147 2.0 4.0 0.00 0.00 0.00 64 1016.4
20260902053836 82 164 1.0 3.0 0.00 0.00 0.00 64 1016.3
20260902053330 82 201 1.0 3.0 0.00 0.00 0.00 64 1016.3
20260902052827 82 209 0.0 2.0 0.00 0.00 0.00 63 1016.3
20260902052322 82 169 0.0 3.0 0.00 0.00 0.00 63 1016.3
20260902051817 83 202 0.0 3.0 0.00 0.00 0.00 62 1016.3
20260902051350 83 169 1.0 4.0 0.00 0.00 0.00 62 1016.3
20260902050843 83 160 2.0 3.0 0.00 0.00 0.00 62 1016.2
20260902050337 83 164 0.0 3.0 0.00 0.00 0.00 61 1016.3
20260902045852 84 165 1.0 5.0 0.00 0.00 0.00 60 1016.2
20260902045325 84 186 2.0 8.0 0.00 0.00 0.00 60 1016.3
20260902044820 84 203 1.0 8.0 0.00 0.00 0.00 60 1016.2
20260902044318 84 196 0.0 5.0 0.00 0.00 0.00 60 1016.1
20260902043833 84 115 1.0 5.0 0.00 0.00 0.00 60 1016.1
20260902043328 84 153 2.0 5.0 0.00 0.00 0.00 60 1016.0
20260902042823 84 145 1.0 4.0 0.00 0.00 0.00 59 1016.0
20260902042338 84 160 1.0 5.0 0.00 0.00 0.00 59 1016.0
20260902041852 84 186 1.0 5.0 0.00 0.00 0.00 59 1016.0
20260902041326 84 174 2.0 4.0 0.00 0.00 0.00 59 1015.9
20260902040821 83 152 1.0 5.0 0.00 0.00 0.00 60 1015.9
20260902040320 83 218 2.0 5.0 0.00 0.00 0.00 61 1016.0
20260902035834 82 182 1.0 4.0 0.00 0.00 0.00 62 1015.9
20260902035349 81 191 1.0 2.0 0.00 0.00 0.00 64 1015.9
20260902034823 80 177 0.0 1.0 0.00 0.00 0.00 66 1015.9
20260902034339 80 230 0.0 0.0 0.00 0.00 0.00 65 1016.0
20260902033832 81 230 0.0 0.0 0.00 0.00 0.00 66 1015.9
20260902033327 81 230 0.0 0.0 0.00 0.00 0.00 65 1015.8
20260902032822 81 229 0.0 0.0 0.00 0.00 0.00 65 1015.9
20260902032335 81 230 0.0 0.0 0.00 0.00 0.00 66 1015.8
20260902031350 81 230 0.0 0.0 0.00 0.00 0.00 65 1015.8
20260902030824 81 230 0.0 0.0 0.00 0.00 0.00 64 1015.8
20260902030318 81 232 0.0 0.0 0.00 0.00 0.00 64 1015.8
20260902025832 81 232 0.0 0.0 0.00 0.00 0.00 63 1015.7
20260902025327 82 232 0.0 0.0 0.00 0.00 0.00 64 1015.6
20260902024821 82 232 0.0 0.0 0.00 0.00 0.00 63 1015.6
20260902024336 82 232 0.0 0.0 0.00 0.00 0.00 63 1015.5
20260902023830 82 232 0.0 0.0 0.00 0.00 0.00 62 1015.4
20260902023349 83 232 0.0 0.0 0.00 0.00 0.00 63 1015.4
20260902022822 83 232 0.0 0.0 0.00 0.00 0.00 63 1015.3
20260902022337 82 232 0.0 0.0 0.00 0.00 0.00 64 1015.3
20260902021852 82 232 0.0 0.0 0.00 0.00 0.00 62 1015.3
20260902021325 82 232 0.0 0.0 0.00 0.00 0.00 61 1015.2
20260902020820 83 158 0.0 0.0 0.00 0.00 0.00 62 1015.2
20260902020336 83 158 0.0 0.0 0.00 0.00 0.00 61 1015.1
20260902015829 83 158 0.0 0.0 0.00 0.00 0.00 64 1015.0
20260902015328 84 158 0.0 0.0 0.00 0.00 0.00 62 1015.0
20260902014823 85 158 0.0 0.0 0.00 0.00 0.00 57 1014.9
20260902014318 85 158 0.0 0.0 0.00 0.00 0.00 57 1014.9
20260902013834 85 158 0.0 0.0 0.00 0.00 0.00 56 1014.8
20260902013348 86 158 0.0 0.0 0.00 0.00 0.00 56 1014.8
20260902012821 86 158 0.0 0.0 0.00 0.00 0.00 56 1014.7
20260902012333 87 158 0.0 0.0 0.00 0.00 0.00 56 1014.7
20260902011828 87 158 0.0 0.0 0.00 0.00 0.00 55 1014.7
20260902011322 87 158 0.0 0.0 0.00 0.00 0.00 55 1014.7
20260902010820 86 156 0.0 0.0 0.00 0.00 0.00 55 1014.7
20260902010334 87 158 0.0 0.0 0.00 0.00 0.00 55 1014.7
20260902005849 87 158 0.0 0.0 0.00 0.00 0.00 55 1014.7
20260902005324 87 158 0.0 0.0 0.00 0.00 0.00 55 1014.6
20260902004839 87 155 0.0 0.0 0.00 0.00 0.00 54 1014.7
20260902004333 88 155 0.0 0.0 0.00 0.00 0.00 53 1014.6
20260902003828 89 155 0.0 0.0 0.00 0.00 0.00 52 1014.7
20260902003323 89 155 0.0 0.0 0.00 0.00 0.00 52 1014.7
20260902002818 90 155 0.0 0.0 0.00 0.00 0.00 51 1014.7
20260902002353 91 155 0.0 0.0 0.00 0.00 0.00 51 1014.7
20260902001831 92 155 0.0 0.0 0.00 0.00 0.00 51 1014.7
20260902001325 92 155 0.0 0.0 0.00 0.00 0.00 50 1014.7
20260902000840 93 155 0.0 4.0 0.00 0.00 0.00 49 1014.7
20260902000333 93 155 0.0 4.0 0.00 0.00 0.00 48 1014.8
20260901235830 94 208 0.0 0.0 0.00 0.00 0.00 47 1014.8
20260901235325 94 208 0.0 0.0 0.00 0.00 0.00 46 1014.8
20260901234819 94 208 0.0 0.0 0.00 0.00 0.00 45 1014.8
20260901234355 94 208 0.0 0.0 0.00 0.00 0.00 44 1014.9
20260901233833 94 274 0.0 0.0 0.00 0.00 0.00 44 1014.9
20260901233348 94 274 0.0 0.0 0.00 0.00 0.00 44 1015.0
20260901232822 94 274 0.0 0.0 0.00 0.00 0.00 45 1015.0
20260901232357 94 274 0.0 0.0 0.00 0.00 0.00 43 1015.0
20260901231831 95 214 0.0 0.0 0.00 0.00 0.00 46 1015.1
20260901231326 97 214 0.0 0.0 0.00 0.00 0.00 43 1015.0
20260901230842 97 214 0.0 0.0 0.00 0.00 0.00 40 1015.1
20260901230336 98 214 0.0 0.0 0.00 0.00 0.00 38 1015.1
20260901225831 98 215 0.0 4.0 0.00 0.00 0.00 37 1015.1
20260901225346 98 218 0.0 0.0 0.00 0.00 0.00 37 1015.1
20260901224844 98 288 0.0 3.0 0.00 0.00 0.00 38 1015.1
20260901224317 98 217 2.0 6.0 0.00 0.00 0.00 38 1015.1
20260901223833 98 236 1.0 6.0 0.00 0.00 0.00 40 1015.0
20260901223328 97 210 2.0 4.0 0.00 0.00 0.00 39 1015.1
20260901222822 97 76 0.0 3.0 0.00 0.00 0.00 43 1015.0
20260901222335 97 72 0.0 0.0 0.00 0.00 0.00 44 1015.0
20260901221830 98 72 0.0 0.0 0.00 0.00 0.00 43 1015.0
20260901221324 99 72 0.0 0.0 0.00 0.00 0.00 38 1015.0
20260901220820 100 228 0.0 3.0 0.00 0.00 0.00 37 1015.0
20260901220335 100 203 0.0 3.0 0.00 0.00 0.00 36 1015.0
20260901215829 100 359 0.0 3.0 0.00 0.00 0.00 37 1015.1
20260901215343 101 226 0.0 3.0 0.00 0.00 0.00 37 1015.1
20260901214837 101 182 0.0 3.0 0.00 0.00 0.00 37 1015.1
20260901214331 100 174 1.0 3.0 0.00 0.00 0.00 39 1015.2
20260901213826 99 146 0.0 3.0 0.00 0.00 0.00 38 1015.2
20260901213320 99 178 0.0 0.0 0.00 0.00 0.00 38 1015.2
20260901212819 99 144 0.0 2.0 0.00 0.00 0.00 39 1015.3
20260901212334 99 217 0.0 2.0 0.00 0.00 0.00 38 1015.3
20260901211828 99 176 0.0 1.0 0.00 0.00 0.00 41 1015.4
20260901211322 99 230 0.0 5.0 0.00 0.00 0.00 38 1015.4
20260901210836 99 163 1.0 5.0 0.00 0.00 0.00 39 1015.5
20260901210331 100 226 2.0 7.0 0.00 0.00 0.00 37 1015.6
20260901205825 100 223 1.0 7.0 0.00 0.00 0.00 37 1015.5
20260901205319 100 224 0.0 3.0 0.00 0.00 0.00 39 1015.6
20260901204836 100 341 0.0 1.0 0.00 0.00 0.00 38 1015.8
20260901204331 99 300 0.0 4.0 0.00 0.00 0.00 39 1015.8
20260901203825 99 54 0.0 5.0 0.00 0.00 0.00 41 1015.8
20260901203320 98 72 0.0 3.0 0.00 0.00 0.00 41 1015.9
20260901202834 97 118 0.0 1.0 0.00 0.00 0.00 41 1015.9
20260901202327 97 94 0.0 1.0 0.00 0.00 0.00 40 1016.1
20260901201841 98 91 0.0 1.0 0.00 0.00 0.00 40 1016.2
20260901201335 99 297 0.0 1.0 0.00 0.00 0.00 39 1016.2
20260901200829 99 221 0.0 2.0 0.00 0.00 0.00 39 1016.2
20260901200329 98 230 0.0 2.0 0.00 0.00 0.00 40 1016.2
20260901195823 98 219 0.0 3.0 0.00 0.00 0.00 39 1016.4
20260901195318 98 228 0.0 3.0 0.00 0.00 0.00 40 1016.4
20260901194832 98 174 0.0 5.0 0.00 0.00 0.00 39 1016.4
20260901194325 99 219 2.0 5.0 0.00 0.00 0.00 37 1016.5
20260901193841 100 205 1.0 4.0 0.00 0.00 0.00 38 1016.5
20260901193331 100 261 0.0 3.0 0.00 0.00 0.00 39 1016.5
20260901192824 100 125 0.0 1.0 0.00 0.00 0.00 37 1016.6
20260901192323 101 173 0.0 4.0 0.00 0.00 0.00 38 1016.7
20260901191858 101 353 1.0 4.0 0.00 0.00 0.00 38 1016.7
20260901191351 100 70 0.0 3.0 0.00 0.00 0.00 40 1016.8
20260901190320 98 283 0.0 3.0 0.00 0.00 0.00 41 1017.0
20260901185833 99 205 0.0 4.0 0.00 0.00 0.00 41 1017.0
20260901185326 99 169 1.0 4.0 0.00 0.00 0.00 38 1017.1
20260901184821 100 261 1.0 3.0 0.00 0.00 0.00 39 1017.1
20260901184334 100 297 0.0 3.0 0.00 0.00 0.00 41 1017.1
20260901183829 99 330 0.0 7.0 0.00 0.00 0.00 39 1017.0
20260901183328 98 263 3.0 7.0 0.00 0.00 0.00 41 1017.2
20260901182843 99 287 0.0 5.0 0.00 0.00 0.00 40 1017.3
20260901182336 99 186 1.0 5.0 0.00 0.00 0.00 39 1017.3
20260901181831 98 262 0.0 2.0 0.00 0.00 0.00 42 1017.4
20260901181326 98 313 0.0 2.0 0.00 0.00 0.00 40 1017.5
20260901180821 98 284 0.0 8.0 0.00 0.00 0.00 40 1017.6
20260901180335 98 283 2.0 8.0 0.00 0.00 0.00 39 1017.7
20260901175851 98 219 0.0 5.0 0.00 0.00 0.00 42 1017.7
20260901175325 98 282 1.0 4.0 0.00 0.00 0.00 41 1017.9
20260901174844 98 330 0.0 5.0 0.00 0.00 0.00 44 1018.0
20260901174317 98 18 1.0 5.0 0.00 0.00 0.00 44 1018.0
20260901173831 97 268 0.0 4.0 0.00 0.00 0.00 45 1018.1
20260901173326 97 335 1.0 4.0 0.00 0.00 0.00 44 1018.2
20260901172840 97 246 0.0 4.0 0.00 0.00 0.00 44 1018.4
20260901172334 98 319 0.0 6.0 0.00 0.00 0.00 44 1018.4
20260901171829 97 231 2.0 6.0 0.00 0.00 0.00 45 1018.4
20260901171324 97 225 1.0 7.0 0.00 0.00 0.00 44 1018.5
20260901170838 97 206 2.0 7.0 0.00 0.00 0.00 44 1018.5
20260901170331 96 169 0.0 6.0 0.00 0.00 0.00 47 1018.5
20260901165830 96 217 3.0 10.0 0.00 0.00 0.00 46 1018.6
20260901165325 96 190 4.0 10.0 0.00 0.00 0.00 47 1018.6
20260901164820 96 226 2.0 6.0 0.00 0.00 0.00 48 1018.7
20260901164335 96 228 0.0 6.0 0.00 0.00 0.00 49 1018.8
20260901163830 96 241 4.0 6.0 0.00 0.00 0.00 47 1018.8
20260901163324 96 194 0.0 4.0 0.00 0.00 0.00 48 1018.8
20260901162819 95 217 0.0 3.0 0.00 0.00 0.00 49 1018.8
20260901162318 94 216 1.0 5.0 0.00 0.00 0.00 51 1018.9
20260901161833 93 215 3.0 5.0 0.00 0.00 0.00 50 1018.9
20260901161327 93 207 1.0 6.0 0.00 0.00 0.00 51 1018.9
20260901160822 93 212 2.0 6.0 0.00 0.00 0.00 51 1019.0
20260901160317 93 228 1.0 6.0 0.00 0.00 0.00 52 1019.0
20260901155832 93 219 0.0 1.0 0.00 0.00 0.00 53 1019.1
20260901155327 92 185 0.0 0.0 0.00 0.00 0.00 53 1019.1
20260901154825 92 217 0.0 7.0 0.00 0.00 0.00 53 1019.1
20260901154319 91 191 3.0 9.0 0.00 0.00 0.00 52 1019.1
20260901153329 92 247 1.0 6.0 0.00 0.00 0.00 52 1018.9
20260901152823 91 142 4.0 8.0 0.00 0.00 0.00 53 1018.9
20260901152336 91 169 5.0 8.0 0.00 0.00 0.00 53 1018.8
20260901151830 91 239 4.0 7.0 0.00 0.00 0.00 52 1018.9
20260901151346 91 208 3.0 7.0 0.00 0.00 0.00 54 1018.9
20260901150817 91 217 4.0 7.0 0.00 0.00 0.00 53 1018.8
20260901150352 91 210 1.0 7.0 0.00 0.00 0.00 54 1018.8
20260901145830 91 212 4.0 7.0 0.00 0.00 0.00 54 1018.8
20260901145324 90 191 3.0 6.0 0.00 0.00 0.00 55 1018.8
20260901144818 90 184 2.0 5.0 0.00 0.00 0.00 56 1018.7
20260901144333 89 229 1.0 5.0 0.00 0.00 0.00 56 1018.8
20260901143829 89 211 2.0 5.0 0.00 0.00 0.00 56 1018.9
20260901143343 88 194 2.0 5.0 0.00 0.00 0.00 57 1018.9
20260901142817 88 203 3.0 5.0 0.00 0.00 0.00 57 1019.0
20260901142332 88 214 3.0 5.0 0.00 0.00 0.00 56 1018.9
20260901141831 88 146 1.0 7.0 0.00 0.00 0.00 58 1019.0
20260901141326 87 129 0.0 7.0 0.00 0.00 0.00 58 1019.0
20260901140820 87 204 3.0 5.0 0.00 0.00 0.00 58 1019.0
20260901140335 87 203 1.0 4.0 0.00 0.00 0.00 58 1019.0
20260901135829 86 216 1.0 4.0 0.00 0.00 0.00 58 1019.1
20260901135323 86 200 0.0 5.0 0.00 0.00 0.00 59 1019.1
20260901134818 86 143 3.0 5.0 0.00 0.00 0.00 59 1019.1
20260901134337 86 220 0.0 3.0 0.00 0.00 0.00 59 1019.1
20260901133831 85 217 0.0 5.0 0.00 0.00 0.00 60 1019.1
20260901133325 84 209 2.0 6.0 0.00 0.00 0.00 60 1019.1
20260901132840 84 200 0.0 6.0 0.00 0.00 0.00 61 1019.0
20260901132334 84 221 1.0 5.0 0.00 0.00 0.00 61 1019.0
20260901131826 84 227 0.0 3.0 0.00 0.00 0.00 61 1018.9
20260901131340 85 217 1.0 2.0 0.00 0.00 0.00 60 1018.8
20260901130831 84 221 0.0 3.0 0.00 0.00 0.00 61 1018.8
20260901130344 83 214 0.0 3.0 0.00 0.00 0.00 61 1018.7
20260901125817 83 207 0.0 4.0 0.00 0.00 0.00 63 1018.7
20260901125332 82 219 1.0 4.0 0.00 0.00 0.00 63 1018.7
20260901124831 82 214 1.0 4.0 0.00 0.00 0.00 63 1018.7
20260901124344 81 221 1.0 4.0 0.00 0.00 0.00 64 1018.6
20260901123838 81 220 1.0 3.0 0.00 0.00 0.00 64 1018.6
20260901123332 81 212 1.0 3.0 0.00 0.00 0.00 65 1018.5
20260901122827 80 211 0.0 2.0 0.00 0.00 0.00 66 1018.4
20260901122322 80 213 0.0 1.0 0.00 0.00 0.00 66 1018.4
20260901121836 80 214 0.0 1.0 0.00 0.00 0.00 66 1018.3
20260901121350 79 210 0.0 3.0 0.00 0.00 0.00 67 1018.3
20260901120824 79 162 1.0 5.0 0.00 0.00 0.00 67 1018.3
20260901120338 78 216 1.0 5.0 0.00 0.00 0.00 68 1018.2
20260901115836 78 208 0.0 3.0 0.00 0.00 0.00 68 1018.1
20260901115330 78 219 1.0 3.0 0.00 0.00 0.00 68 1018.0
20260901114843 78 217 1.0 2.0 0.00 0.00 0.00 69 1018.0
20260901114317 78 221 0.0 4.0 0.00 0.00 0.00 69 1018.0
20260901113851 78 207 1.0 4.0 0.00 0.00 0.00 69 1017.8
20260901113325 78 176 0.0 2.0 0.00 0.00 0.00 70 1017.8